Regional Weather Roundup
Issued by NWS Green Bay, WI

Home | Current Version | Previous Version | Text Only | Print | Product List | Glossary On
Versions: 1 2 3 4 5 6 7 8 9 10 11 12 13 14 15 16 17 18 19 20 21 22 23 24 25 26 27 28 29 30 31 32 33 34 35 36 37 38 39 40 41 42 43 44 45 46 47 48 49 50
000
ASUS43 KGRB 062111
RWRGRB

NORTH-CENTRAL AND NORTHEAST WISCONSIN REGIONAL WEATHER ROUNDUP
NATIONAL WEATHER SERVICE GREEN BAY WI
300 PM CST SAT FEB 06 2016

WIZ005-009-010>012-018-019-062200-
NORTH CENTRAL WISCONSIN

CITY           SKY/WX    TMP DP  RH WIND       PRES   REMARKS
IRONWOOD       CLOUDY    34  21  60 S8        29.86F
MANITOWISH WTR CLOUDY    31  20  65 S10       29.91F
ARBOR VITAE    CLOUDY    32  22  66 S9        29.93F
EAGLE RIVER    CLOUDY    29  18  64 S7        29.94S
LAND O LAKES   CLOUDY    30  19  63 S6        29.93F
RHINELANDER    CLOUDY    30  20  66 SW9       29.96F
PHILLIPS       CLOUDY    32  22  65 S13G18    29.93F
ANTIGO         CLOUDY    28  22  78 SW9       30.00S
TOMAHAWK       CLOUDY    33  20  60 S6        29.97F
MERRILL        PTSUNNY   32  22  67 SW8       30.00F
$$

WIZ013-073-062200-
NORTHEAST WISCONSIN

CITY           SKY/WX    TMP DP  RH WIND       PRES   REMARKS
IRON MOUNTAIN  CLOUDY    30  19  63 SW5       29.98S
MARINETTE      CLOUDY    30  21  69 SW9       30.05S
OCONTO         CLOUDY    31  24  77 SW8       30.06S
$$

WIZ017-030-035>037-045-062200-
CENTRAL WISCONSIN

CITY           SKY/WX    TMP DP  RH WIND       PRES   REMARKS
MEDFORD        SUNNY     30  22  71 S8        29.99S
WAUSAU         CLOUDY    33  22  63 SW13      30.00F
MOSINEE        MOSUNNY   30  25  80 S10       30.03F
MARSHFIELD     SUNNY     34  21  59 SW9       30.01F
WISC RAPIDS    SUNNY     33  22  63 SW12      30.06F
STEVENS POINT  CLOUDY    32  23  69 SW8       30.05S
WAUPACA        CLOUDY    35  25  67 SW8       30.07F
SHAWANO        CLOUDY    33  25  72 SW7       30.06S
CLINTONVILLE   CLOUDY    32  23  69 SW9       30.06F
WAUTOMA        PTSUNNY   34  25  70 SW7       30.09F
$$

WIZ038-039-048-051-062200-
FOX VALLEY

CITY           SKY/WX    TMP DP  RH WIND       PRES   REMARKS
NWS GREEN BAY  CLOUDY    30  24  78 SW9       30.07F
APPLETON       CLOUDY    30  23  74 SW12      30.07F
OSHKOSH        CLOUDY    31  24  75 SW8       30.09F
FOND DU LAC    CLOUDY    32  24  72 SW12      30.09F
$$

WIZ022-050-052-062200-
EAST CENTRAL WISCONSIN

CITY           SKY/WX    TMP DP  RH WIND       PRES   REMARKS
EPHRAIM        CLOUDY    28  22  78 SW6G17    30.05S
STURGEON BAY   CLOUDY    28  21  74 W10       30.08S
MANITOWOC      CLOUDY    33  24  69 SW9       30.10F
SHEBOYGAN      CLOUDY    31  24  75 W13       30.10F
$$

LMZ563-521-522-541>543-062200-
LAKESHORE

STATION/POSITION TIME  TEMP    WIND        PRES    VSBY  WAVE
                       AIR SEA DIR/SP/G                  HT/PER
                 (UTC) (F)     (DEG/KT/KT) (MB)    (MI)  (FT/S)
SHEBOYGAN LKSHOR 2100   32     230/ 10/ 12 1020.6F
KEWAUNEE LKSHORE 2000   30     260/  9/ 15 1018.0F
ALGOMA MARINA    2011          250/ 12/ 16   N/A
CHAMBERS ISLAND  2000   29     230/  5/ 13 1017.9F
MENOMINEE LKSHOR 2000   29     240/  8     1016.8F
$$



USA.gov is the U.S. government's official web portal to all federal, state and local government web resources and services.